User: anonymous   Login
Location: La Pernelle
(49.6188°N, 1.2999°W)
Time: 23:17:18
(UTC+00:00)
Language:

Meteor 2-20 - Orbit

View from above orbital plane
View from above orbital plane
View from above satellite
View from above satellite

Ground track
Ground track

The orbit data is extracted from the following two-line orbital elements,

1 20826U 90086A   21269.34122990 -.00000004  00000-0 -17164-4 0  9990
2 20826  82.5233 132.1343 0013217 180.8412 179.2728 13.84259153565674
Epoch (UTC): 26 September 2021 08:11:22
Eccentricity: 0.0013217
inclination: 82.5233°
perigee height: 939 km
apogee height: 958 km
right ascension of ascending node: 132.1343°
argument of perigee: 180.8412°
revolutions per day: 13.84259153
mean anomaly at epoch: 179.2728°
orbit number at epoch: 56567

The dashed part of the orbit path shows where the satellite is in the earth's shadow,  

DLR